Date,TemperatureHighF,TemperatureAvgF,TemperatureLowF,DewpointHighF,DewpointAvgF,DewpointLowF,HumidityHigh,HumidityAvg,HumidityLow,PressureMaxIn,PressureMinIn,WindSpeedMaxMPH,WindSpeedAvgMPH,GustSpeedMaxMPH,PrecipitationSumIn
2013-2-1,30.9,23.4,14.9,28.0,16.8,11.0,95,76,58,30.35,30.07,9,2,0,0.01
2013-2-2,46.3,31.9,18.8,34.0,25.7,16.0,94,79,59,30.20,29.94,9,1,0,0.05
2013-2-3,51.0,38.8,28.3,35.0,30.0,25.0,91,73,48,30.02,29.88,12,2,0,0.05
2013-2-4,56.1,40.3,25.7,35.0,29.6,24.0,93,69,39,29.99,29.78,9,2,0,0.00
2013-2-5,63.6,50.4,40.5,46.0,39.6,32.0,89,68,46,29.90,29.77,7,1,0,0.00
2013-2-6,61.0,45.9,34.0,42.0,35.6,31.0,94,70,44,30.07,29.91,4,0,0,0.00
2013-2-7,60.8,50.3,41.6,49.0,42.3,31.0,93,75,62,29.95,29.75,7,1,0,0.00
2013-2-8,49.8,42.3,34.0,47.0,38.2,29.0,97,85,73,30.16,29.73,9,2,0,0.09
2013-2-9,54.4,42.1,31.7,35.0,31.3,27.0,84,67,45,30.20,29.99,5,1,0,0.00
2013-2-10,57.5,51.6,44.0,56.0,44.2,32.0,97,78,54,30.00,29.69,18,4,0,0.84
2013-2-11,57.8,49.8,40.2,56.0,39.8,30.0,97,70,43,30.00,29.77,8,2,0,0.85
2013-2-12,51.6,43.4,36.1,41.0,35.4,31.0,93,75,53,30.01,29.64,4,0,0,0.08
2013-2-13,43.3,39.6,34.5,41.0,37.4,32.0,97,91,85,29.87,29.55,5,1,0,0.03
2013-2-14,59.6,43.5,26.7,41.0,33.5,26.0,97,72,40,29.91,29.82,9,1,0,0.03
2013-2-15,51.1,41.6,29.6,39.0,32.1,22.0,93,70,48,30.01,29.87,6,1,0,0.00
2013-2-16,38.0,29.0,22.0,24.0,17.6,11.0,84,64,44,30.08,29.96,8,2,0,0.00
2013-2-17,46.6,31.8,15.5,23.0,18.0,11.0,92,59,39,30.15,30.04,6,1,0,0.00
2013-2-18,60.3,46.6,27.1,43.0,32.1,20.0,93,59,44,30.05,29.70,19,6,0,0.30
2013-2-19,48.0,41.5,29.1,45.0,30.2,20.0,95,67,38,30.08,29.72,13,4,0,0.01
2013-2-20,36.0,29.0,20.7,22.0,18.2,14.0,76,64,50,30.19,30.08,6,1,0,0.01
2013-2-21,48.1,36.8,25.1,46.0,28.7,18.0,97,74,44,30.09,29.72,7,1,0,0.64
2013-2-22,59.0,51.5,44.5,49.0,47.0,41.0,96,85,67,29.88,29.72,12,3,0,0.64
2013-2-23,53.2,42.0,32.5,41.0,35.6,28.0,94,79,59,29.86,29.73,5,1,0,0.00
2013-2-24,56.2,40.1,26.1,33.0,28.1,24.0,93,65,39,29.97,29.84,3,0,0,0.00
2013-2-25,62.0,48.2,34.0,47.0,34.4,25.0,90,60,40,29.85,29.36,10,2,0,0.04
2013-2-26,52.1,45.3,38.2,48.0,41.4,34.0,96,86,71,29.58,29.24,16,6,0,0.14
2013-2-27,40.6,38.7,37.1,34.0,32.5,31.0,83,78,72,29.77,29.59,10,3,0,0.14
2013-2-28,37.7,35.5,33.5,33.0,28.5,27.0,85,76,66,29.91,29.72,9,2,0,0.00